Location: La Brionne
(46.1728°N, 1.7849°E)
Time: 07:53:00
(UTC+00:00)

Cosmos 1707 - Pass Details

Date: 16 June 2021
Orbit: 514 x 530 km, 82.5° (Epoch: 31 July)

Event Time Altitude Azimuth Distance (km) Brightness Sun altitude
Rises 20:54:07 0° 193° (SSW) 2,640 6.0 -9.4°
Reaches altitude 10° 20:56:15 10° 196° (SSW) 1,759 5.1 -9.7°
Maximum altitude 21:00:05 69° 280° (W) 569 3.1 -10.1°
Drops below altitude 10° 21:04:00 10° 4° (N) 1,783 6.1 -10.5°
Sets 21:06:10 0° 7° (N) 2,680 7.1 -10.8°
